Tracking 29030 objects as of 25-Jun-2024
HD Live streaming from Space Station
objects crossing your sky now

CZ-3B DEB

Track CZ-3B DEB now!


NORAD ID: 40169
Int'l Code: 2010-042W
Perigee: 1,256.9 km
Apogee: 40,314.5 km
Inclination: 26.8 °
Period: 742.3 minutes
Semi major axis: 27156 km
RCS: Unknown
Launch date: September 4, 2010
Source: People's Republic of China (PRC)
Launch site: Xichang Space Center, China (XSC)

Note: This is SATELLITE DEBRIS
Your satellite tracking list
Your tracking list is empty




NASA's NSSDC Master Catalog

Two Line Element Set (TLE):
1 40169U 10042W   24174.58467453 -.00000220  00000-0  00000-0 0  9992
2 40169  26.7899  52.7167 7191159 103.5106  14.7089  1.93993535 83737
Source of the keplerian elements: AFSPC